sat.trackr.live / text

‹ back to catalog

UNKNOWN

NORAD 87730

UNKNOWN UNKNOWN UNKNOWN

§ Identity

Operator
Country
Launch date
Launch site
Launch vehicle
Mass (kg)
RCS (m²)

External: N2YO · Heavens-Above

§ Orbital elements

Epoch: 2026-09-01T03:43:17.856192Z

Period
104.76 min
Inclination
82.9435°
Eccentricity
0.0029598
Mean motion
13.74544608 rev/d
Perigee alt
961.5 km
Apogee alt
1,005.1 km
Semi-major
7,361.4 km
B*
4.8201e-5
RAAN
39.9332°
Arg perigee
355.0806°
Mean anomaly
5.0054°
Rev number
62,138

§ Raw data

UNKNOWN1 87730U          26244.15506778  .00000061  00000+0  48201-4 0  99972 87730  82.9435  39.9332 0029598 355.0806   5.0054 13.74544608621383

JSON: /api/v1/satellites/87730 · /tle

For live sub-satellite position, see the globe view (requires WebGL).

§ Visibility from observer

Set your observer location to see the next 7 days of passes ≥ 10°. The values pass through the URL so the page stays shareable.

No JS? Fill the form by hand. The geolocation button needs JavaScript.